Wetbulb
65.28 65.02 65.17 63.43 64.06 63.69 63.58 62.55 62.35 63.02 63.00 63.18 62.72 62.69 63.05 64.31 64.40 62.90 63.60 67.75 69.92 70.25 70.87 69.86 69.84 70.15 70.47 71.47 72.15 72.16 71.59 71.47 71.02 70.53 70.50 70.28 70.17 69.54 68.73 68.29 68.92 69.08 69.11
66.10 66.01 63.54 61.66 62.84 63.05 63.27 63.91 64.02 62.56 62.36 62.46 61.52 61.20 61.87 61.82 62.55 63.82 63.49 63.24 69.00 69.50 69.68 69.50 69.36 69.63 69.97 70.54 71.88 71.72 71.33 70.58 70.89 70.78 70.57 69.75 69.13 68.23 68.19 67.86 68.11 68.85 68.71
66.59 65.43 63.66 63.21 62.71 62.71 62.04 63.75 62.50 61.45 61.01 61.14 60.57 61.22 61.11 61.22 61.85 63.28 63.12 63.21 64.23 68.95 69.34 69.87 69.35 69.35 69.76 69.81 71.64 71.74 71.09 70.64 70.74 70.49 70.03 69.13 68.98 68.37 67.96 68.15 68.47 68.81 68.53
66.68 64.17 63.13 62.95 63.20 62.62 62.08 61.40 60.91 60.59 60.50 60.50 59.89 59.90 60.19 60.85 61.41 61.35 62.37 63.85 63.84 64.63 67.80 69.21 69.24 69.31 69.39 69.38 71.09 71.15 70.87 70.62 70.63 70.02 69.79 69.33 68.68 68.85 69.09 68.74 68.87 68.60 67.75
65.47 63.95 63.12 62.94 62.92 62.30 61.40 61.05 60.61 60.21 59.16 59.04 59.78 59.95 59.60 59.80 60.99 62.44 62.57 62.77 63.00 63.83 63.07 66.62 68.59 69.33 69.92 70.16 70.80 71.14 71.32 70.76 70.66 70.05 69.66 69.62 69.51 69.01 68.85 68.84 68.34 67.27 66.25
65.79 63.71 63.41 62.85 62.85 61.48 60.94 60.64 60.10 59.70 59.45 58.95 60.60 60.97 59.19 60.09 60.16 60.92 61.36 62.22 61.44 63.09 62.83 62.98 65.08 65.36 69.62 70.31 70.42 70.80 71.46 70.86 70.64 70.14 69.51 69.18 69.15 68.72 68.65 67.93 66.81 66.03 65.48
64.83 63.35 63.09 62.50 62.34 61.68 60.54 60.32 60.18 60.12 59.60 59.06 57.17 56.97 58.47 60.53 60.15 60.15 60.57 60.79 61.26 61.81 60.85 62.65 63.45 63.84 66.28 69.70 69.91 70.38 71.29 71.00 70.62 69.98 69.01 68.45 68.54 68.53 67.89 66.94 66.71 66.05 62.61
64.48 63.96 63.02 62.22 62.06 60.88 60.59 60.11 59.32 57.65 57.73 57.55 55.26 56.45 54.41 56.74 57.97 58.76 59.65 60.06 60.08 60.26 60.64 63.14 63.61 63.97 63.89 65.41 67.22 69.94 70.72 71.07 70.78 70.16 68.78 68.12 68.01 68.22 67.60 67.14 66.39 63.37 62.03
64.02 63.55 62.71 62.07 61.31 60.96 59.54 58.92 58.63 57.25 55.16 55.67 56.23 53.32 50.52 52.33 55.39 56.77 58.02 59.20 59.63 59.11 59.99 62.62 63.12 63.83 63.47 64.44 67.69 69.04 69.54 69.99 70.32 70.00 68.68 68.21 67.99 67.75 67.64 66.56 65.19 63.42 63.42
63.32 64.04 62.73 62.16 61.22 60.44 59.34 58.67 59.48 57.91 56.79 55.10 56.75 58.00 55.57 54.93 51.24 50.34 55.81 57.66 58.92 59.11 59.22 60.89 62.09 63.12 63.47 64.59 68.09 68.56 68.11 68.32 69.55 69.83 69.00 68.66 67.95 67.15 66.76 66.63 64.50 62.76 64.06
63.15 63.53 62.69 61.67 60.40 59.48 59.19 59.06 59.01 58.21 57.59 56.21 55.30 55.10 55.32 55.03 55.55 52.47 50.68 54.41 57.41 57.73 59.05 60.50 61.41 63.44 63.80 62.86 65.13 66.99 66.55 66.88 67.42 67.86 67.91 67.96 67.91 66.70 65.99 65.29 62.29 63.32 63.74
61.40 62.42 62.60 61.10 60.38 59.53 59.42 59.28 58.88 58.32 57.79 57.65 57.31 57.25 55.79 53.18 52.44 53.38 50.72 52.22 53.34 56.11 58.46 60.89 61.28 61.96 61.21 61.97 66.14 65.41 64.07 64.08 63.64 64.43 65.47 66.36 66.48 66.31 66.02 63.59 63.67 64.41 63.84
60.25 60.84 60.64 60.04 59.73 59.95 59.95 60.00 59.21 58.83 58.35 58.23 58.47 57.83 57.21 56.63 56.03 54.49 53.43 53.22 53.87 55.46 57.77 61.76 61.96 60.15 61.11 61.97 64.68 65.07 63.53 62.12 61.53 61.98 63.17 64.14 63.88 64.17 63.89 64.63 64.33 63.87 63.56
59.98 60.48 60.36 60.10 60.61 61.01 60.99 60.38 59.43 59.11 59.06 58.59 57.62 57.53 57.43 57.75 59.72 58.41 55.19 54.92 53.77 54.80 58.03 59.34 62.54 62.27 62.84 62.28 64.04 64.58 61.96 62.33 61.17 60.61 60.64 60.37 61.05 62.26 62.77 63.13 63.53 63.63 63.61
60.64 60.27 60.53 60.41 60.84 61.20 61.07 59.86 59.11 59.26 59.28 58.32 58.06 58.02 58.37 59.60 60.32 57.95 57.51 57.37 55.91 54.66 54.89 58.92 59.44 62.44 63.25 63.91 63.55 62.23 61.95 60.35 60.32 58.82 58.86 59.39 60.35 60.97 60.91 60.98 61.17 61.36 61.65
60.21 60.35 60.22 60.58 60.63 60.79 60.81 60.13 59.53 61.06 59.34 58.19 58.80 58.34 58.50 58.25 58.97 57.49 57.89 57.85 58.65 57.06 54.11 59.00 59.85 62.01 61.85 62.21 63.03 61.72 61.35 59.91 58.92 58.89 58.71 58.93 58.41 58.39 58.65 58.91 58.99 59.53 59.90
59.96 60.69 61.63 61.36 60.80 60.91 60.70 59.55 59.09 59.92 57.43 58.28 59.57 59.48 58.92 58.80 59.36 57.87 57.23 56.91 57.31 57.63 56.49 58.40 60.35 61.13 60.16 60.26 59.92 60.01 59.57 57.84 57.95 58.56 58.62 57.41 56.43 56.42 56.78 56.73 56.83 57.28 57.69
60.07 61.11 62.07 61.53 61.65 61.24 59.60 59.80 59.71 60.66 60.65 59.33 59.43 58.36 58.24 61.09 59.11 59.00 57.75 56.35 55.93 57.47 58.46 57.03 58.23 58.98 58.81 59.39 58.64 58.54 59.69 60.64 60.36 58.73 57.21 56.43 55.57 54.90 54.66 54.22 54.14 54.03 53.97
59.24 60.05 60.97 61.34 61.34 60.73 60.13 60.33 61.02 60.64 60.91 60.51 60.07 59.85 59.73 59.98 59.70 60.00 59.45 58.75 58.97 58.95 59.15 57.71 56.63 58.58 58.72 58.83 59.04 59.07 58.41 58.25 58.85 57.71 54.99 54.67 54.29 53.90 53.19 52.54 52.07 51.72 50.92
60.10 61.33 61.11 61.22 60.54 60.02 60.07 59.81 60.41 60.35 61.28 61.06 61.25 61.05 60.74 60.11 59.70 59.94 59.92 59.58 59.45 59.16 58.87 57.19 57.05 57.27 58.25 58.55 57.95 56.19 55.68 56.63 54.04 54.03 53.13 52.45 52.47 52.62 52.09 51.77 52.02 51.16 49.02
62.09 61.96 60.02 59.20 59.17 59.37 58.50 58.75 60.58 60.25 61.33 61.17 60.70 60.86 60.58 60.04 59.22 59.35 60.11 59.56 59.19 58.29 57.93 57.05 56.57 56.61 56.21 55.66 55.10 55.45 53.40 52.87 51.56 51.75 49.51 48.42 47.64 47.88 48.92 51.08 51.89 50.25 47.80
61.96 60.90 59.09 58.87 57.38 57.56 48.85 50.21 56.19 60.90 60.80 59.69 58.72 59.32 59.36 58.25 56.85 55.66 56.00 56.27 58.26 58.25 57.47 56.79 55.97 55.18 55.75 55.36 55.08 54.32 52.96 51.77 49.05 51.14 47.84 45.77 46.61 44.48 44.00 44.84 47.17 46.15 45.45
59.55 58.12 57.67 57.19 55.41 54.33 45.72 46.11 50.85 60.76 59.23 58.09 58.44 60.27 60.09 58.95 58.15 57.77 52.20 52.67 52.52 52.63 55.81 57.73 56.03 55.55 55.03 55.51 55.39 54.18 54.05 52.32 49.59 48.79 47.78 43.10 42.98 40.47 42.47 44.42 45.02 44.36 44.12
58.19 57.87 56.55 55.89 54.57 54.26 45.37 46.13 51.93 60.47 59.38 59.88 59.04 60.70 59.72 59.09 57.99 58.64 58.62 57.88 57.92 57.77 57.77 58.56 57.28 57.32 57.19 56.87 56.25 55.31 52.67 50.27 49.19 48.92 47.98 42.30 42.18 40.51 40.64 40.79 43.78 43.56 42.94
57.55 57.37 56.21 55.27 54.47 53.60 45.04 47.22 55.44 59.62 59.68 59.90 60.50 60.75 60.22 58.88 49.00 50.10 58.43 57.17 56.89 54.94 49.97 48.69 48.43 48.00 47.24 48.33 53.06 53.64 51.25 49.64 47.33 47.47 49.03 44.26 42.57 39.70 38.25 37.60 39.45 43.01 42.01
59.98 59.35 55.91 54.75 52.69 54.06 45.21 47.04 54.96 59.96 59.29 58.40 58.31 57.27 51.55 55.31 46.68 49.30 58.16 57.53 56.01 55.72 55.41 54.64 54.44 51.22 51.78 51.48 51.09 54.25 52.66 49.84 48.45 47.44 49.81 44.82 42.28 40.81 38.69 38.72 37.10 38.89 38.19
MSLP
1009.32 1009.69 1009.83 1009.98 1010.25 1010.58 1010.88 1011.39 1011.64 1011.86 1011.90 1011.74 1011.80 1011.86 1011.76 1011.55 1011.48 1011.59 1011.59 1011.45 1011.20 1011.29 1011.53 1011.82 1012.22 1012.28 1012.39 1012.62 1013.06 1013.37 1013.78 1014.33 1014.86 1015.45 1016.01 1016.43 1016.73 1017.11 1017.32 1017.70 1018.17 1018.18 1018.47
1008.81 1009.13 1009.30 1009.56 1010.02 1010.19 1010.40 1010.71 1011.06 1011.32 1011.46 1011.49 1011.64 1011.58 1011.53 1011.45 1011.30 1011.21 1011.13 1011.17 1010.89 1010.87 1011.30 1011.73 1012.02 1012.15 1012.25 1012.48 1012.91 1013.25 1013.76 1014.43 1014.85 1015.37 1015.95 1016.39 1016.86 1017.16 1017.41 1017.78 1018.16 1018.32 1018.64
1008.10 1008.30 1008.75 1009.17 1009.50 1009.75 1010.02 1010.49 1010.86 1011.06 1011.26 1011.42 1011.50 1011.35 1011.36 1011.25 1011.10 1010.99 1010.96 1010.95 1010.93 1010.87 1011.07 1011.38 1011.69 1011.93 1012.18 1012.28 1012.71 1013.12 1013.66 1014.22 1014.74 1015.23 1015.72 1016.31 1016.88 1017.16 1017.52 1017.91 1018.24 1018.55 1018.97
1007.39 1007.93 1008.40 1008.78 1008.98 1009.45 1010.04 1010.53 1010.76 1011.03 1011.14 1011.18 1011.20 1011.10 1011.08 1011.04 1010.84 1010.68 1010.75 1010.79 1010.78 1010.85 1010.95 1011.19 1011.52 1011.80 1012.04 1012.21 1012.49 1012.88 1013.46 1013.95 1014.42 1014.97 1015.65 1016.14 1016.69 1017.10 1017.36 1017.74 1018.13 1018.58 1019.18
1007.15 1007.76 1008.12 1008.59 1008.69 1009.29 1009.77 1010.11 1010.38 1010.63 1010.90 1010.95 1011.03 1011.05 1010.92 1010.81 1010.66 1010.59 1010.66 1010.60 1010.66 1010.87 1011.03 1011.23 1011.36 1011.56 1011.88 1012.10 1012.31 1012.56 1013.14 1013.72 1014.19 1014.86 1015.57 1016.02 1016.51 1016.89 1017.44 1017.86 1018.28 1018.78 1019.47
1006.85 1007.66 1007.94 1008.30 1008.61 1009.19 1009.64 1009.91 1010.13 1010.34 1010.40 1010.58 1010.82 1010.90 1010.78 1010.60 1010.47 1010.57 1010.52 1010.41 1010.48 1010.61 1010.80 1011.11 1011.27 1011.45 1011.74 1012.08 1012.24 1012.43 1012.91 1013.46 1014.02 1014.72 1015.36 1015.97 1016.44 1017.03 1017.54 1018.18 1018.69 1019.37 1019.76
1006.82 1007.46 1007.64 1007.99 1008.44 1008.91 1009.19 1009.51 1009.74 1009.95 1010.08 1010.44 1010.78 1010.84 1010.76 1010.61 1010.43 1010.33 1010.40 1010.49 1010.53 1010.52 1010.67 1010.99 1011.13 1011.32 1011.49 1011.80 1012.12 1012.50 1012.67 1013.24 1013.81 1014.52 1015.18 1015.85 1016.47 1017.17 1017.79 1018.36 1018.96 1019.53 1020.01
1006.65 1007.04 1007.31 1007.76 1008.19 1008.74 1009.05 1009.30 1009.54 1009.81 1010.04 1010.24 1010.59 1010.83 1010.89 1010.71 1010.40 1010.23 1010.21 1010.30 1010.37 1010.55 1010.66 1010.56 1010.85 1011.15 1011.41 1011.73 1012.03 1012.29 1012.51 1013.09 1013.59 1014.27 1015.10 1015.85 1016.66 1017.33 1017.94 1018.50 1019.10 1019.73 1020.27
1006.33 1006.67 1007.06 1007.50 1008.02 1008.36 1008.72 1008.95 1009.14 1009.47 1009.89 1010.11 1010.08 1010.44 1010.86 1010.77 1010.60 1010.18 1010.16 1010.11 1010.21 1010.25 1010.44 1010.61 1010.66 1010.83 1011.14 1011.53 1011.84 1012.14 1012.49 1012.84 1013.47 1014.18 1015.04 1015.85 1016.76 1017.41 1018.05 1018.59 1019.15 1019.85 1020.44
1006.27 1006.62 1006.92 1007.30 1007.68 1008.05 1008.39 1008.59 1008.81 1009.13 1009.54 1009.94 1010.19 1010.14 1010.28 1010.46 1010.69 1010.55 1010.32 1010.20 1010.15 1010.43 1010.50 1010.63 1010.87 1011.05 1011.20 1011.38 1011.55 1011.97 1012.38 1012.92 1013.55 1014.03 1014.88 1015.79 1016.68 1017.50 1018.19 1018.94 1019.62 1020.17 1020.59
1006.32 1006.49 1006.81 1007.21 1007.52 1007.91 1008.11 1008.34 1008.58 1008.90 1009.11 1009.41 1009.73 1009.94 1010.19 1010.32 1010.48 1010.76 1010.71 1010.60 1010.64 1010.62 1010.55 1010.57 1010.74 1011.02 1011.20 1011.41 1011.45 1011.74 1012.23 1012.83 1013.61 1014.16 1014.92 1015.80 1016.74 1017.53 1018.30 1019.12 1019.85 1020.33 1020.72
1006.36 1006.55 1006.87 1007.07 1007.41 1007.65 1007.85 1008.05 1008.22 1008.47 1008.67 1008.94 1009.18 1009.41 1009.58 1009.95 1010.25 1010.56 1010.78 1010.86 1010.86 1011.09 1011.03 1011.00 1011.01 1011.28 1011.44 1011.51 1011.53 1011.78 1012.32 1012.89 1013.82 1014.44 1015.19 1015.92 1016.86 1017.72 1018.42 1019.34 1019.80 1020.33 1020.82
1006.47 1006.58 1006.75 1007.08 1007.28 1007.40 1007.61 1007.72 1007.87 1008.13 1008.33 1008.63 1008.76 1008.94 1009.05 1009.16 1009.24 1009.85 1010.23 1010.70 1011.03 1011.31 1011.42 1011.48 1011.52 1011.58 1011.68 1011.73 1011.87 1012.10 1012.59 1013.31 1014.22 1014.98 1015.90 1016.61 1017.38 1018.08 1018.90 1019.50 1019.92 1020.37 1020.97
1006.18 1006.33 1006.61 1006.86 1007.04 1007.22 1007.34 1007.43 1007.69 1007.88 1007.96 1008.21 1008.41 1008.54 1008.58 1008.68 1008.67 1009.06 1009.69 1010.19 1011.08 1011.39 1011.65 1011.74 1011.89 1012.00 1011.98 1012.16 1012.27 1012.52 1013.21 1013.77 1012.83 1015.35 1015.18 1016.44 1017.43 1018.12 1019.15 1019.87 1020.19 1020.78 1021.12
1006.08 1006.35 1006.60 1006.78 1006.91 1006.96 1007.06 1007.28 1007.48 1007.64 1007.72 1007.94 1008.04 1007.97 1008.15 1008.18 1008.08 1008.77 1009.23 1009.42 1009.78 1010.88 1011.78 1011.91 1011.93 1012.29 1012.33 1012.52 1012.93 1013.22 1013.89 1014.53 1014.91 1015.87 1016.91 1017.56 1018.19 1018.97 1019.82 1020.21 1020.73 1021.05 1021.50
1006.06 1006.34 1006.51 1006.65 1006.73 1006.78 1006.90 1007.02 1007.24 1007.44 1007.68 1007.68 1007.72 1007.74 1007.84 1007.93 1008.10 1008.48 1008.67 1008.96 1009.18 1009.97 1011.27 1011.86 1011.94 1012.38 1012.71 1013.14 1013.50 1013.99 1014.61 1015.19 1015.84 1016.63 1017.63 1018.01 1018.63 1019.56 1020.03 1020.63 1021.13 1021.47 1022.00
1006.09 1006.24 1006.41 1006.45 1006.64 1006.70 1006.79 1006.93 1007.09 1007.35 1007.53 1007.59 1007.52 1007.50 1007.66 1007.89 1008.29 1008.49 1008.78 1009.10 1009.50 1009.98 1010.89 1011.93 1012.24 1012.85 1013.42 1013.77 1014.32 1014.84 1015.43 1016.18 1016.93 1017.73 1018.47 1019.02 1019.70 1020.00 1020.62 1021.18 1021.59 1021.91 1022.45
1006.06 1006.15 1006.29 1006.47 1006.66 1006.72 1006.79 1006.89 1007.07 1007.18 1007.31 1007.46 1007.40 1007.44 1007.56 1007.79 1008.19 1008.44 1008.86 1009.34 1009.84 1010.14 1010.74 1011.77 1012.72 1013.22 1013.68 1014.46 1015.04 1015.61 1016.17 1016.83 1017.34 1018.41 1018.85 1019.57 1020.13 1020.62 1021.06 1021.52 1022.03 1022.40 1022.60
1006.05 1006.29 1006.32 1006.58 1006.67 1006.82 1006.88 1006.91 1007.10 1007.18 1007.26 1007.29 1007.40 1007.45 1007.62 1007.73 1008.12 1008.49 1008.78 1009.28 1010.05 1010.64 1011.20 1011.89 1012.96 1013.50 1014.29 1014.95 1015.56 1016.34 1016.74 1017.32 1018.13 1018.99 1019.90 1020.51 1021.03 1021.21 1021.67 1022.15 1022.34 1022.50 1022.84
1006.07 1006.24 1006.47 1006.70 1006.75 1006.89 1007.04 1006.95 1007.03 1007.20 1007.23 1007.29 1007.34 1007.44 1007.58 1007.89 1008.11 1008.51 1008.99 1009.58 1010.25 1010.88 1011.57 1012.33 1013.27 1013.92 1014.52 1015.34 1015.96 1016.53 1017.77 1018.64 1019.44 1020.15 1020.91 1021.31 1021.74 1021.95 1022.23 1022.46 1022.69 1022.92 1023.44
1006.05 1006.31 1006.66 1006.91 1007.04 1007.13 1007.29 1007.24 1007.12 1007.32 1007.27 1007.43 1007.53 1007.65 1007.76 1007.98 1008.37 1008.64 1009.01 1009.68 1010.44 1011.01 1011.67 1012.58 1013.33 1013.96 1014.81 1015.70 1016.30 1017.30 1018.21 1019.37 1020.56 1021.19 1021.88 1022.38 1022.46 1022.79 1023.05 1023.17 1023.33 1023.68 1024.11
1006.12 1006.46 1006.91 1007.18 1007.50 1007.68 1007.61 1007.41 1007.33 1007.42 1007.54 1007.64 1007.90 1008.08 1008.19 1008.35 1008.72 1009.03 1009.42 1009.85 1010.35 1010.95 1011.78 1012.51 1013.33 1014.08 1015.08 1015.87 1016.72 1017.64 1018.50 1019.74 1021.13 1021.82 1022.18 1022.98 1023.06 1023.57 1023.83 1023.90 1024.10 1024.52 1024.82
1006.47 1006.92 1007.26 1007.54 1007.98 1008.05 1007.88 1007.66 1007.46 1007.63 1007.86 1008.10 1008.34 1008.44 1008.64 1008.94 1009.18 1009.59 1010.06 1010.43 1010.95 1011.37 1011.79 1012.16 1013.25 1014.21 1015.09 1016.04 1016.67 1018.13 1019.03 1019.67 1020.40 1021.63 1021.98 1023.53 1023.89 1024.16 1024.42 1024.58 1024.72 1024.84 1025.07
1006.69 1007.06 1007.57 1007.88 1008.25 1008.42 1008.25 1007.85 1007.78 1007.97 1008.25 1008.46 1008.65 1008.77 1009.03 1009.34 1009.61 1009.89 1010.29 1010.87 1011.44 1012.14 1012.66 1013.09 1013.56 1014.55 1015.23 1016.56 1017.26 1017.69 1018.93 1019.96 1021.08 1021.67 1021.80 1023.47 1024.16 1024.73 1025.02 1025.13 1025.12 1025.18 1025.33
1006.95 1007.30 1007.71 1008.08 1008.42 1008.63 1008.59 1008.17 1008.16 1008.37 1008.72 1008.89 1009.04 1009.19 1009.39 1009.76 1010.06 1010.32 1010.67 1011.37 1012.17 1013.11 1013.56 1014.11 1014.87 1015.47 1016.39 1016.94 1017.33 1018.16 1019.31 1020.05 1021.33 1021.84 1022.05 1023.02 1024.26 1024.90 1025.23 1025.31 1025.37 1025.49 1025.68
1007.10 1007.51 1008.05 1008.28 1008.49 1008.69 1008.71 1008.53 1008.51 1008.78 1009.10 1009.32 1009.58 1009.81 1009.88 1010.25 1010.59 1010.91 1011.32 1011.94 1012.85 1013.72 1014.45 1015.34 1016.28 1016.78 1016.91 1017.49 1017.74 1018.04 1018.65 1019.58 1020.59 1021.92 1021.86 1022.56 1023.78 1024.22 1025.12 1025.11 1025.25 1025.20 1025.58
Wind_Speed
7 6 6 4 4 4 4 4 4 4 5 6 5 6 5 7 6 4 4 14 10 16 17 14 14 14 12 13 13 16 18 18 18 18 17 16 17 17 17 16 14 14 15
7 7 5 5 4 5 5 6 6 5 5 4 5 6 6 5 6 5 5 4 9 9 15 14 15 15 14 12 14 15 18 18 20 18 18 18 17 17 17 15 12 13 15
10 9 5 5 5 5 5 3 3 4 4 3 6 5 4 5 5 5 4 4 4 9 12 15 15 14 15 13 13 16 17 19 20 20 20 18 16 15 16 16 13 13 18
10 6 5 4 5 4 4 4 4 4 4 4 3 4 4 4 6 6 4 4 4 4 8 12 12 12 14 14 14 16 17 19 22 21 20 19 18 15 14 15 17 18 21
8 6 5 5 5 4 4 4 4 3 3 3 4 4 4 4 4 2 5 5 6 5 4 8 13 11 12 12 14 16 18 20 20 20 20 18 18 16 15 17 22 23 23
8 6 5 5 5 4 4 3 5 4 3 3 3 3 4 4 3 3 4 3 5 5 5 5 4 6 11 12 13 14 18 21 20 22 21 20 17 16 19 22 22 21 22
6 7 5 5 5 6 6 6 3 5 3 3 2 2 2 4 4 4 3 4 4 5 5 5 4 4 5 13 11 14 18 21 23 24 22 20 18 21 23 22 22 20 21
8 7 6 5 5 3 5 4 4 2 2 4 3 2 2 2 3 4 3 4 5 3 4 5 5 5 5 4 5 11 16 22 25 26 22 20 20 22 22 22 21 19 16
7 7 7 5 5 4 3 4 4 5 4 3 4 4 1 3 2 1 5 4 4 1 2 5 5 5 5 4 6 9 17 21 24 26 24 22 22 24 22 22 20 19 17
6 6 6 5 5 3 4 4 4 3 3 3 1 4 2 3 2 2 2 1 2 4 3 3 4 3 4 5 10 10 14 18 24 26 25 24 25 26 23 21 20 17 17
5 6 6 5 5 4 4 5 4 5 4 4 3 2 2 2 1 2 2 1 1 2 2 3 4 3 3 3 4 7 16 16 21 23 24 25 26 26 25 23 20 18 17
3 4 5 4 4 4 4 4 4 6 5 4 3 3 4 4 4 3 2 0 3 2 2 2 4 3 3 3 5 10 13 16 15 19 22 24 26 25 24 22 21 19 17
2 4 4 5 3 4 5 4 5 5 4 4 5 4 4 4 3 3 3 2 3 1 3 2 3 3 3 3 3 11 16 10 15 15 17 22 26 24 21 19 19 18 16
3 4 4 4 5 5 5 4 2 3 4 4 5 5 4 4 3 4 4 4 4 2 3 2 2 3 3 4 7 15 13 15 24 18 23 23 23 19 16 15 14 13 14
3 5 5 5 4 4 5 5 3 5 4 3 5 5 4 3 4 4 4 5 6 5 3 2 2 4 4 6 8 9 10 21 24 24 23 21 18 15 13 14 13 12 13
3 5 5 4 4 5 5 6 3 2 4 2 2 4 3 3 3 3 4 4 4 7 5 2 2 5 7 7 11 10 13 23 26 25 20 19 16 14 13 13 14 15 13
6 5 5 5 4 3 3 3 3 4 5 4 2 3 3 5 6 4 3 3 4 5 9 3 3 9 9 11 11 11 14 15 15 24 21 13 13 15 15 14 14 14 12
4 5 5 4 3 2 3 4 4 4 5 4 3 2 1 3 5 4 4 5 5 5 11 11 5 5 11 13 14 16 11 11 13 17 17 15 14 14 13 13 12 12 12
4 3 4 5 5 4 3 3 4 3 5 4 4 3 3 5 7 7 7 8 8 7 9 9 6 7 9 11 11 10 11 12 9 19 17 15 12 14 13 12 12 12 13
5 4 5 5 5 4 3 2 3 3 3 4 3 4 4 6 9 9 9 9 9 9 10 10 10 10 9 9 11 12 11 8 8 9 16 14 12 14 12 12 12 14 14
5 7 7 5 4 4 3 4 2 5 5 5 4 4 3 6 9 10 9 11 11 9 10 10 9 9 10 11 12 9 11 9 7 4 6 4 4 5 5 9 12 14 13
7 6 6 6 5 3 6 7 4 5 5 6 5 4 4 10 10 13 11 11 12 13 12 10 9 12 12 11 10 10 12 10 5 2 4 4 3 4 3 4 8 11 12
7 6 6 6 5 3 7 7 2 5 6 5 5 4 5 5 8 9 12 13 11 11 10 15 15 12 15 14 13 12 11 6 4 4 7 3 2 3 3 4 8 9 10
6 6 6 5 5 2 7 6 6 6 5 5 5 5 6 7 8 10 11 12 11 11 10 9 14 13 15 11 10 11 10 9 8 3 3 4 1 2 2 1 5 7 9
5 4 5 6 6 2 7 7 7 6 7 6 5 5 7 9 10 13 13 13 13 11 14 18 15 17 15 14 12 11 9 11 5 2 1 4 3 2 2 2 3 6 7
5 5 5 4 6 4 6 5 7 6 7 5 5 5 9 10 12 13 13 14 12 11 13 13 11 11 12 11 9 4 10 10 6 2 4 5 3 4 2 2 4 4 3
Wind_Direction
188 198 208 191 192 177 181 201 213 213 225 229 242 242 241 217 215 210 225 243 255 228 213 217 217 209 212 189 185 183 186 186 176 172 163 160 153 149 145 147 164 169 155
185 199 190 186 191 183 189 208 211 207 214 203 237 246 243 240 238 221 235 239 260 221 203 195 224 223 218 198 188 190 180 185 179 169 164 159 158 160 160 161 169 157 136
196 193 181 182 185 183 175 181 194 179 190 211 237 249 259 253 249 221 229 231 236 196 191 206 216 223 222 209 198 195 184 183 177 171 164 164 164 169 170 173 175 144 133
194 170 160 172 180 166 169 178 180 201 220 210 234 252 262 278 249 234 221 211 202 208 212 215 224 223 221 213 203 200 190 185 179 172 167 166 170 176 175 171 161 143 126
166 155 161 185 170 166 173 179 197 200 222 231 227 248 258 259 249 217 208 214 209 206 203 231 220 209 217 218 215 204 190 187 177 171 168 167 168 164 160 141 129 136 139
162 161 171 172 152 146 176 192 217 225 197 209 232 245 257 250 260 228 225 225 221 200 204 210 218 207 204 216 230 211 196 188 172 169 166 163 163 161 142 135 136 140 133
193 200 192 166 166 174 193 211 224 207 215 210 95 297 274 258 257 249 226 227 226 216 214 191 192 192 200 206 217 224 199 190 176 167 163 162 156 147 141 142 140 139 134
185 176 171 181 177 180 218 215 182 166 209 173 157 147 229 300 258 237 235 243 229 194 217 218 193 180 173 179 200 213 203 193 182 171 164 155 151 147 146 142 139 138 140
165 160 172 167 184 190 202 186 182 171 182 214 204 144 120 229 324 338 227 232 251 240 203 205 185 177 173 176 189 204 205 188 185 171 162 155 154 149 147 143 144 137 139
150 157 154 163 175 175 181 192 187 174 151 189 190 236 113 150 142 345 339 232 235 179 162 166 160 158 177 188 190 184 192 182 180 169 161 156 154 151 146 145 136 135 138
147 146 146 163 175 172 188 191 183 195 187 171 173 155 169 198 93 131 226 113 13 42 64 153 146 158 139 162 167 175 171 176 174 159 157 154 154 150 147 147 139 143 141
132 152 175 175 175 181 190 196 203 201 203 194 188 195 177 169 173 170 132 179 128 17 64 99 106 133 141 125 151 148 153 158 166 160 152 150 150 150 142 147 150 145 146
193 190 164 176 177 194 198 193 195 204 196 194 199 206 208 205 153 142 126 135 120 53 80 48 101 111 118 110 120 128 107 139 136 139 137 142 144 140 145 143 142 144 147
174 165 175 172 192 194 196 188 181 198 200 203 215 209 199 202 180 160 161 143 90 95 61 116 85 106 76 96 114 143 126 130 114 130 128 129 128 126 127 136 139 143 129
160 168 170 187 193 204 189 185 197 201 193 191 221 209 193 193 177 155 180 173 142 137 138 89 106 93 90 109 112 115 127 122 124 132 129 125 119 128 143 128 129 122 116
141 164 175 183 180 200 195 188 197 147 170 178 200 158 171 166 134 168 165 147 108 133 126 109 88 118 105 100 115 117 130 123 123 112 115 120 121 133 120 117 114 110 114
163 173 178 166 183 183 173 169 190 169 170 178 165 151 160 149 179 167 122 93 116 122 125 84 71 122 114 113 104 110 125 120 115 127 137 127 123 115 114 114 117 118 116
180 179 186 154 159 160 155 149 183 179 167 181 184 158 73 143 159 165 147 128 117 130 135 125 124 122 118 119 118 117 121 129 126 119 117 118 119 111 115 113 114 123 123
183 196 174 150 142 122 107 126 150 156 183 166 190 145 115 113 112 131 129 121 120 119 126 133 121 124 121 125 125 106 107 101 98 95 83 88 93 104 106 117 117 115 108
147 139 112 125 122 118 104 95 109 135 131 142 156 156 118 122 121 120 115 118 124 126 122 121 132 131 130 122 119 120 109 105 98 75 69 76 84 88 98 104 108 104 104
141 130 125 111 98 75 38 17 38 122 139 122 101 98 112 122 112 122 130 126 132 128 130 134 133 129 128 132 129 120 108 108 67 72 81 59 71 71 65 79 105 115 113
131 122 114 116 91 59 24 18 21 118 103 115 113 90 100 118 120 120 121 126 143 143 142 140 139 137 134 125 124 124 124 128 118 91 101 67 47 71 64 62 113 118 124
119 128 116 113 108 87 14 7 16 111 117 111 108 102 100 106 115 122 105 114 103 109 134 140 137 137 132 139 132 135 138 125 116 138 105 76 47 72 52 82 120 141 138
130 132 122 125 118 59 357 35 98 100 100 104 104 95 115 117 121 126 115 118 107 114 124 137 134 136 132 133 134 132 122 102 93 104 115 111 117 74 88 108 150 143 152
132 139 131 140 128 64 5 65 100 89 96 93 93 89 116 119 124 124 121 110 100 79 62 76 85 102 108 116 128 123 128 131 124 194 104 107 151 113 179 209 204 173 178
121 126 117 138 139 123 30 91 104 112 111 97 84 88 105 127 124 128 127 125 120 119 109 102 98 98 119 126 129 126 145 143 127 92 209 105 140 148 199 187 183 191 178